FENGYUN 1C DEB

Satellite information

Favourite Embed

Satellite Type and Status

DEBRISIN ORBIT

Key statistics

Satellite FENGYUN 1C DEB at a glance.

Uptime

9495

Days in orbit

Revolutions

≈ 14.1

Per day

Orbit

SSO

Sun Synchronous Orbit

Inclination

98.4

Latest

Satellite identification and parameters

Extended collection of information and parameters for FENGYUN 1C DEB.

Object identification

Identified? True

Debris? True

Object name: FENGYUN 1C DEB

International designator: 1999-025AWL

Object number (NORAD): 30850

Object ID (CCSDS): 30850

Country: PEOPLES REPUBLIC OF CHINA (PRC)

Current information (Y/N): Y

RCS size: SMALL

Orbital parameters

Period: 101.814 minutes

Inclination: 98.4086 deg

SMA: 7222.684 km

Apoapsis: 927.553 km

Periapsis: 761.544 km

RAAN: 5.2918 deg

Eccentricy: 0.0114922

Argument of periapsis: 109.6632 deg

Mean anomaly: 41.0844 deg

Mean motion: 14.14343448 rev/day

Mean motion (dot): 0.00004108 rev/day2

B* drag term: 0.0020352 1/REarth

Two-line elements (TLE)

Creation date: May 8, 2025, 3:01 a.m.

Reference frame: TEME

Reference center: EARTH

Epoch: May 7, 2025, 3:26 a.m. UTC

TLE line 0: 0 FENGYUN 1C DEB

TLE line 1: 1 30850U 99025AWL 25127.14329868 .00004108 00000-0 20352-2 0 9996

TLE line 2: 2 30850 98.4086 5.2918 0114922 109.6632 41.0844 14.14343448926929

Live tracking on map

Real-time ground track for satellite FENGYUN 1C DEB.

In-orbit conjunctions

A list of the most updated potential collisions computed for object FENGYUN 1C DEB.

Target Orbit TCA Probability of collision Miss distance Type
SKIPPER SSO 2024-12-29 15:59:56 0.0001566274 502.0 (m) PAYLOAD
FENGYUN 1C DEB SSO 2024-11-09 22:48:10 0.0001580927 724.0 (m) DEBRIS

Associated space launch

Chinese polar orbiting meteorological satellite

FENGYUN 1C DEB was lifted into orbit during the mission ‘Long March 4B | Feng Yun 1C’, on board a Long March 4B space rocket.

The launch took place on May 10, 1999, 1:33 a.m. from Launch Complex 7.

For more information about the launch, click the button.

Launch to space Long March 4B | Feng Yun 1C
Long March 4B | Feng Yun 1C

Agency: N/A

Status: Launch Successful

Launch date: May 10, 1999, 1:33 a.m. UTC

Rocket: Long March 4B

Launch pad: Launch Complex 7

Location: Taiyuan Satellite Launch Center, People's Republic of China

...

Latest news about this satellite

There are no fresh news available about this satellite. Check back as we update our databases every day.


Newsletter sign-up

Weekly statistics, charts and insights to help you stay on top of the space industry.